Regional Weather Roundup
Issued by NWS

Home | Current Version | Previous Version | Text Only | Print | Product List | Glossary Off
Versions: 1 2 3 4 5 6 7 8 9 10 11 12 13 14 15 16 17 18 19 20 21 22 23 24 25 26 27 28 29 30 31 32 33 34 35 36 37 38 39 40 41 42 43 44 45 46 47 48 49 50

944
ASUS45 KPSR 221110
RWRAZ

ARIZONA HOURLY REGIONAL WEATHER ROUNDUP
NATIONAL WEATHER SERVICE PHOENIX AZ
400 AM MST TUE AUG 22 2017

NOTE: FAIR INDICATES FEW OR NO CLOUDS BELOW 12,000 FEET WITH NO
SIGNIFICANT WEATHER AND/OR OBSTRUCTIONS TO VISIBILITY.

AZZ001>003-036-221200-
NORTHWEST ARIZONA

CITY           SKY/WX    TMP DP  RH WIND       PRES   REMARKS
BULLHEAD CITY  CLEAR     82  54  36 NE5       29.92S
KINGMAN        CLEAR     59  55  87 SE3       30.13R
$$

AZZ004>008-015-016-018-221200-
NORTH CENTRAL ARIZONA

CITY           SKY/WX    TMP DP  RH WIND       PRES   REMARKS
GRAND CANYON   MOCLDY    58  52  80 S12G17    30.36R
WILLIAMS       CLOUDY    55  52  88 SE5       30.35R
PRESCOTT       CLEAR     58  51  78 S6        30.23R
FLAGSTAFF      CLOUDY    54  52  93 SW3       30.37S
PAYSON           N/A     63  54  72 CALM      30.23S
PAGE           CLOUDY    75  52  44 S8        30.20R
$$

AZZ009>014-017-221200-
NORTHEAST ARIZONA

CITY           SKY/WX    TMP DP  RH WIND       PRES   REMARKS
WINSLOW        PTCLDY    62  51  67 SW9       30.21R
SAINT JOHNS    CLEAR     61  50  67 S7        30.26S
WINDOW ROCK    CLEAR     54  48  80 CALM      30.34S
SHOW LOW       PTCLDY    57  50  77 S3        30.32R
$$

AZZ540-542>544-546-548-221200-
GREATER PHOENIX AREA

CITY           SKY/WX    TMP DP  RH WIND       PRES   REMARKS
PHOENIX        PTCLDY    85  56  37 CALM      29.89S
BUCKEYE        CLEAR     81  52  36 N5        29.91S
DEER VALLEY    CLEAR     82  54  37 NE7       29.93R
SCOTTSDALE     CLEAR     82  55  39 CALM      29.94S
MESA-GATEWAY   CLEAR     75  54  46 SE6       29.93S
$$

AZZ539-553-221200-
SOUTHWEST MARICOPA COUNTY AND PINAL COUNTY

CITY           SKY/WX    TMP DP  RH WIND       PRES   REMARKS
CASA GRANDE    CLEAR     80  58  46 CALM      29.94S
$$

AZZ503-504-507>509-221200-
SOUTHEAST ARIZONA

CITY           SKY/WX    TMP DP  RH WIND       PRES   REMARKS
TUCSON         CLEAR     77  54  44 S8        30.03S
DAVIS-MONTHAN  PTCLDY    77  54  45 E6        30.03S
NOGALES        CLEAR     68  60  75 NE5       30.13S
SIERRA VISTA   CLEAR     71  52  50 SW7       30.19S
DOUGLAS        CLEAR     63  60  90 NW5       30.14F
SAFFORD        CLEAR     68  51  54 E5        30.06R
$$

AZZ532-221200-
SOUTHWEST ARIZONA

CITY           SKY/WX    TMP DP  RH WIND       PRES   REMARKS
YUMA           CLEAR     87  58  37 CALM      29.86R
$$

CAZ041-043-047-048-061-525>527-560>570-221200-
SOUTHERN CALIFORNIA

CITY           SKY/WX    TMP DP  RH WIND       PRES   REMARKS
DOWNTOWN L.A.  CLEAR     67  62  84 CALM      29.97S
L.A. AIRPORT   PTCLDY    66  64  93 SW5       29.97S
SAN DIEGO      CLOUDY    70  62  76 NW8       29.98S
BURBANK        CLEAR     64  56  75 CALM      29.98S
ONTARIO        CLEAR     64  59  83 CALM      29.98S
RIVERSIDE      CLEAR     65  60  84 CALM      29.98S
PALM SPRINGS   CLEAR     84  52  33 NW10      29.90S
EL CENTRO NAS  CLEAR     79  50  36 SE5       29.85S
IMPERIAL       CLEAR     81  52  36 S3        29.83S
BLYTHE         PTCLDY    84  53  34 CALM      29.88R
NEEDLES        CLEAR     83  53  35 NW5       29.93R
$$

NVZ020-UTZ003-221200-
SOUTHERN NEVADA-UTAH

CITY           SKY/WX    TMP DP  RH WIND       PRES   REMARKS
LAS VEGAS      CLEAR     78  52  40 S3        30.03S
SALT LAKE CITY PTCLDY    72  45  37 SE5       30.14F
$$

NMZ009-TXZ055-221200-
NEW MEXICO-WEST TEXAS

CITY           SKY/WX    TMP DP  RH WIND       PRES   REMARKS
ALBUQUERQUE    PTCLDY    67  54  63 NE6       30.26S
EL PASO        CLEAR     73  68  84 N5        30.13S
$$


........................KEY........................
SKY/WX - SKY CONDITION/WEATHER
TMP    - TEMPERATURE IN FAHRENHEIT
DP     - DEW POINT IN FAHRENHEIT
RH     - RELATIVE HUMIDITY IN PERCENT
WIND   - DIRECTION AND SPEED IN MILES PER HOUR (MPH)
VRB    - VARIABLE WIND DIRECTION
PRES   - MEAN SEA LEVEL PRESSURE IN INCHES OF MERCURY
         F - FALLING PRESSURE   R - RISING PRESSURE
         S - STEADY PRESSURE
VSB    - VISIBILITY IN MILES
HX     - HEAT INDEX IN FAHRENHEIT
WCI    - WIND CHILL INDEX IN FAHRENHEIT
TC     - TEMPERATURE IN CELSIUS WHICH IS ALSO KNOWN AS
         TEMPERATURE IN CENTIGRADE
AFB    - AIR FORCE BASE
         LUKE AFB IS LUKE AIR FORCE BASE
         DAVIS-MONTHAN IS DAVIS-MONTHAN AIR FORCE BASE
NAS    - NAVAL AIR STATION
         EL CENTRO NAS IS EL CENTRO NAVAL AIR STATION
N/A    - NOT AVAILABLE





USA.gov is the U.S. government's official web portal to all federal, state and local government web resources and services.